Weather History for Canadian, TX

Change the Weather History Date:

Friday, February 1, 2013

  Actual Average (KPPA) Record (KPPA)
Temperature  
Mean Temperature 34 °F -  
Max Temperature 51 °F 51 °F 78 °F (1989)
Min Temperature 17 °F 24 °F -3 °F (1985)
Degree Days  
Heating Degree Days 31    
Moisture  
Dew Point 19 °F    
Average Humidity 61    
Maximum Humidity 86    
Minimum Humidity 35    
Precipitation  
Precipitation 0.00 in - - ()
Sea Level Pressure  
Sea Level Pressure 30.20 in    
Wind  
Wind Speed 5 mph (South)    
Max Wind Speed 21 mph    
Max Gust Speed 28 mph    
Visibility 10 miles    
Events      
Averages and records for this station are not official NWS values.
T = Trace of Precipitation, MM = Missing Value Source: NWS Daily Summary

Daily Weather History Graph

Daily Weather History Graph

Search for Another Location

Airport:

Trip Planner

Search our weather history database for the weather conditions in past years. The results will help you decide how hot, cold, wet, or windy it might be!

Date:

Astronomy

Feb. 01, 2013 Rise Set
Actual Time 7:41 AM CST 6:09 PM CST
Civil Twilight 7:14 AM CST 6:36 PM CST
Nautical Twilight 6:44 AM CST 7:06 PM CST
Astronomical Twilight 6:14 AM CST 7:36 PM CST
Moon No Moon Rise 10:29 AM CST (2/1)
Length of Visible Light 11h 21m
Length of Day
10h 27m
Waning Gibbous, 70% of the Moon is Illuminated
Feb 1
Waning Gibbous
Feb 3
Last Quarter
Feb 10
New
Feb 17
First Quarter
Feb 25
Full

Hourly Weather History & Observations

Time (CST) Temp. Windchill Dew Point Humidity Pressure Visibility Wind Dir Wind Speed Gust Speed Precip Events Conditions
12:15 AM 24.8 °F - 19.4 °F 80% 30.33 in 10.0 mi Calm Calm - N/A   Clear
12:35 AM 23.0 °F - 19.4 °F 86% 30.33 in 10.0 mi Calm Calm - N/A   Clear
12:55 AM 23.0 °F - 17.6 °F 80% 30.33 in 10.0 mi Calm Calm - N/A   Clear
1:15 AM 23.0 °F - 17.6 °F 80% 30.33 in 10.0 mi Calm Calm - N/A   Clear
1:35 AM 23.0 °F 17.0 °F 17.6 °F 80% 30.34 in 10.0 mi SSE 4.6 mph - N/A   Clear
1:55 AM 21.2 °F 13.6 °F 17.6 °F 86% 30.33 in 10.0 mi SE 5.8 mph - N/A   Clear
2:15 AM 23.0 °F 15.8 °F 17.6 °F 80% 30.33 in 10.0 mi SSE 5.8 mph - N/A   Clear
2:35 AM 21.2 °F - 15.8 °F 80% 30.33 in 10.0 mi Calm Calm - N/A   Clear
3:15 AM 21.2 °F 14.9 °F 15.8 °F 80% 30.32 in 10.0 mi SSE 4.6 mph - N/A   Clear
3:35 AM 21.2 °F 16.4 °F 14.0 °F 74% 30.32 in 10.0 mi South 3.5 mph - N/A   Clear
3:55 AM 21.2 °F - 14.0 °F 74% 30.32 in 10.0 mi Calm Calm - N/A   Clear
4:15 AM 21.2 °F - 14.0 °F 74% 30.31 in 10.0 mi Calm Calm - N/A   Clear
4:35 AM 21.2 °F - 12.2 °F 68% 30.31 in 10.0 mi Calm Calm - N/A   Clear
4:55 AM 19.4 °F - 12.2 °F 74% 30.31 in 10.0 mi Calm Calm - N/A   Clear
5:15 AM 19.4 °F - 12.2 °F 74% 30.31 in 10.0 mi Calm Calm - N/A   Clear
5:35 AM 19.4 °F 14.3 °F 14.0 °F 80% 30.31 in 10.0 mi SSW 3.5 mph - N/A   Clear
5:55 AM 19.4 °F - 14.0 °F 80% 30.31 in 10.0 mi Calm Calm - N/A   Clear
6:15 AM 19.4 °F - 14.0 °F 80% 30.30 in 10.0 mi Calm Calm - N/A   Clear
6:35 AM 17.6 °F - 14.0 °F 86% 30.29 in 10.0 mi Calm Calm - N/A   Clear
6:55 AM 19.4 °F - 14.0 °F 80% 30.29 in 10.0 mi Calm Calm - N/A   Clear
7:15 AM 17.6 °F - 12.2 °F 79% 30.29 in 10.0 mi Calm Calm - N/A   Clear
7:35 AM 19.4 °F - 14.0 °F 80% 30.30 in 10.0 mi Calm Calm - N/A   Clear
7:55 AM 17.6 °F - 14.0 °F 86% 30.30 in 10.0 mi Calm Calm - N/A   Clear
8:15 AM 17.6 °F - 14.0 °F 86% 30.28 in 10.0 mi Calm Calm - N/A   Clear
8:35 AM 21.2 °F - 15.8 °F 80% 30.28 in 10.0 mi Calm Calm - N/A   Clear
8:55 AM 23.0 °F 14.7 °F 15.8 °F 74% 30.27 in 10.0 mi South 6.9 mph - N/A   Clear
9:15 AM 26.6 °F 19.1 °F 15.8 °F 64% 30.27 in 10.0 mi South 6.9 mph - N/A   Clear
9:35 AM 28.4 °F 20.4 °F 17.6 °F 64% 30.27 in 10.0 mi South 8.1 mph - N/A   Clear
9:55 AM 30.2 °F 21.3 °F 19.4 °F 64% 30.27 in 10.0 mi South 10.4 mph - N/A   Clear
10:15 AM 30.2 °F 21.9 °F 19.4 °F 64% 30.27 in 10.0 mi South 9.2 mph - N/A   Clear
10:35 AM 32.0 °F 21.6 °F 17.6 °F 55% 30.27 in 10.0 mi South 15.0 mph - N/A   Clear
10:55 AM 33.8 °F 25.3 °F 14.0 °F 44% 30.26 in 10.0 mi South 11.5 mph - N/A   Clear
11:15 AM 35.6 °F 26.6 °F 14.0 °F 41% 30.26 in 10.0 mi South 13.8 mph - N/A   Clear
11:35 AM 37.4 °F 28.9 °F 15.8 °F 41% 30.24 in 10.0 mi South 13.8 mph 19.6 mph N/A   Clear
11:55 AM 41.0 °F 33.1 °F 17.6 °F 39% 30.22 in 10.0 mi SSW 15.0 mph - N/A   Clear
12:15 PM 41.0 °F 31.6 °F 19.4 °F 42% 30.20 in 10.0 mi South 20.7 mph 27.6 mph N/A   Clear
12:35 PM 42.8 °F 34.0 °F 19.4 °F 39% 30.18 in 10.0 mi South 20.7 mph - N/A   Clear
12:55 PM 44.6 °F 36.6 °F 21.2 °F 39% 30.16 in 10.0 mi SSW 19.6 mph 24.2 mph N/A   Clear
1:15 PM 44.6 °F 37.8 °F 21.2 °F 39% 30.15 in 10.0 mi SSW 15.0 mph 23.0 mph N/A   Clear
1:35 PM 44.6 °F 37.8 °F 21.2 °F 39% 30.14 in 10.0 mi SW 15.0 mph - N/A   Clear
1:55 PM 46.4 °F 39.5 °F 23.0 °F 40% 30.12 in 10.0 mi SSW 17.3 mph 21.9 mph N/A   Clear
2:15 PM 48.2 °F - 23.0 °F 37% 30.11 in 10.0 mi SSW 17.3 mph 21.9 mph N/A   Clear
2:35 PM 48.2 °F - 23.0 °F 37% 30.09 in 10.0 mi SSW 18.4 mph 23.0 mph N/A   Clear
2:55 PM 50.0 °F - 23.0 °F 35% 30.08 in 10.0 mi SSW 15.0 mph - N/A   Clear
3:15 PM 50.0 °F - 23.0 °F 35% 30.06 in 10.0 mi SW 16.1 mph 24.2 mph N/A   Clear
3:35 PM 50.0 °F - 24.8 °F 37% 30.05 in 10.0 mi SSW 16.1 mph - N/A   Clear
3:55 PM 51.8 °F - 24.8 °F 35% 30.05 in 10.0 mi SSW 13.8 mph 18.4 mph N/A   Clear
4:15 PM 51.8 °F - 24.8 °F 35% 30.05 in 10.0 mi SSW 12.7 mph 17.3 mph N/A   Clear
4:35 PM 51.8 °F - 24.8 °F 35% 30.04 in 10.0 mi SSW 12.7 mph - N/A   Clear
4:55 PM 51.8 °F - 24.8 °F 35% 30.04 in 10.0 mi SSW 11.5 mph - N/A   Clear
5:15 PM 51.8 °F - 24.8 °F 35% 30.03 in 10.0 mi SSW 12.7 mph - N/A   Clear
5:35 PM 50.0 °F - 24.8 °F 37% 30.03 in 10.0 mi SSW 10.4 mph - N/A   Clear
5:55 PM 46.4 °F 43.5 °F 24.8 °F 43% 30.04 in 10.0 mi SSW 5.8 mph - N/A   Clear
6:15 PM 44.6 °F 42.2 °F 24.8 °F 46% 30.05 in 10.0 mi South 4.6 mph - N/A   Clear
6:35 PM 44.6 °F 43.1 °F 23.0 °F 43% 30.06 in 10.0 mi South 3.5 mph - N/A   Clear
6:55 PM 42.8 °F 40.1 °F 23.0 °F 46% 30.07 in 10.0 mi SE 4.6 mph - N/A   Clear
7:15 PM 41.0 °F 36.4 °F 23.0 °F 49% 30.09 in 10.0 mi ESE 6.9 mph - N/A   Clear
7:55 PM 41.0 °F 37.1 °F 23.0 °F 49% 30.10 in 10.0 mi SE 5.8 mph - N/A   Clear
8:15 PM 35.6 °F 31.7 °F 23.0 °F 60% 30.11 in 10.0 mi South 4.6 mph - N/A   Clear
8:35 PM 35.6 °F 32.8 °F 23.0 °F 60% 30.12 in 10.0 mi ESE 3.5 mph - N/A   Clear
8:55 PM 35.6 °F 31.7 °F 23.0 °F 60% 30.12 in 10.0 mi SE 4.6 mph - N/A   Clear
9:15 PM 35.6 °F 31.7 °F 23.0 °F 60% 30.12 in 10.0 mi SSE 4.6 mph - N/A   Clear
9:35 PM 32.0 °F 27.5 °F 23.0 °F 69% 30.13 in 10.0 mi SSE 4.6 mph - N/A   Clear
9:55 PM 30.2 °F 26.7 °F 23.0 °F 75% 30.13 in 10.0 mi SSW 3.5 mph - N/A   Clear
10:15 PM 32.0 °F - 23.0 °F 69% 30.13 in 10.0 mi Calm Calm - N/A   Clear
10:35 PM 32.0 °F 28.7 °F 23.0 °F 69% 30.13 in 10.0 mi SW 3.5 mph - N/A   Clear
10:55 PM 28.4 °F 24.6 °F 21.2 °F 74% 30.13 in 10.0 mi SW 3.5 mph - N/A   Clear
11:15 PM 30.2 °F 26.7 °F 23.0 °F 75% 30.13 in 10.0 mi WSW 3.5 mph - N/A   Clear
11:55 PM 28.4 °F - 21.2 °F 74% 30.14 in 10.0 mi Calm Calm - N/A   Clear